Temperature
23 23 22 23 29 31 29 30 30 30 29 28 27 27 28 27 27 24 21 21 20 19 19 19 19 19 19 19 19 19 19 19 19 19 19 18 18 18 18 18 18 18 18 18 18 18 18 18 17
23 23 23 28 31 30 29 30 30 29 28 27 27 27 27 25 23 21 20 20 20 19 19 19 19 19 19 19 19 19 19 19 19 19 19 18 18 18 18 18 18 18 18 18 18 18 18 17 17
23 23 27 32 31 30 29 30 30 29 28 28 27 27 26 24 21 21 20 20 20 19 19 19 19 19 19 19 19 19 19 19 19 19 18 18 18 18 18 18 18 18 18 18 18 18 18 17 17
23 26 29 32 31 30 30 30 30 30 28 28 28 27 24 22 22 21 20 20 20 19 19 19 19 19 19 19 19 19 19 19 19 19 18 18 18 18 18 18 18 18 18 18 18 17 17 17 17
25 30 32 31 31 31 31 30 30 30 29 28 28 27 24 21 21 20 20 20 20 19 19 19 19 19 19 19 19 19 19 19 19 18 18 18 18 18 18 18 18 18 18 18 17 17 17 17 17
29 32 32 31 31 31 31 30 30 30 29 28 28 27 23 20 20 20 20 20 20 20 19 18 19 19 19 19 19 19 19 19 18 18 18 18 18 18 18 18 18 18 18 18 17 17 17 17 17
31 32 31 31 31 31 31 30 30 30 29 28 27 27 23 21 20 20 20 20 20 20 19 18 18 19 19 19 19 18 18 18 18 18 18 18 18 18 18 18 18 18 18 17 17 17 17 17 17
30 33 32 32 31 31 31 30 30 30 29 27 27 27 25 21 20 19 19 19 19 19 19 18 18 18 18 18 18 18 18 18 18 18 18 18 18 18 18 18 18 18 18 17 17 17 17 17 17
29 32 32 32 31 31 31 31 29 28 28 27 26 26 24 21 20 19 19 19 19 18 18 19 18 18 18 18 18 18 18 18 18 18 18 18 17 17 17 17 18 18 18 17 17 17 17 17 17
31 32 32 32 32 32 31 31 30 29 29 27 25 23 22 21 20 20 19 19 19 18 18 18 18 18 18 18 17 18 17 18 17 17 17 17 17 17 17 17 18 18 18 18 17 17 17 17 17
31 32 32 32 31 31 31 31 30 30 30 29 27 23 21 21 20 20 20 19 19 18 18 18 18 18 18 18 18 18 17 17 17 17 17 17 17 17 17 17 17 17 17 17 17 17 17 17 17
31 31 31 31 31 31 31 31 31 30 29 28 26 24 22 21 21 20 20 20 19 18 18 18 18 18 18 18 18 18 17 17 17 17 17 17 17 17 17 17 17 17 17 17 17 17 17 17 17
31 31 31 31 31 31 30 31 30 29 28 26 25 23 22 21 21 20 20 19 19 18 18 18 18 18 18 18 18 17 17 17 17 17 17 17 17 17 17 17 17 17 17 17 17 17 17 17 17
31 31 31 31 31 31 31 31 30 29 27 26 24 23 22 21 21 20 19 19 19 18 18 18 18 18 18 18 18 17 17 17 17 17 17 17 17 17 17 17 17 17 17 17 17 17 17 17 17
30 31 32 32 31 31 31 31 31 28 27 26 25 23 22 21 21 20 20 19 19 19 19 18 18 18 18 18 18 17 17 17 17 17 17 17 17 17 17 17 17 17 17 17 17 17 17 17 17
31 31 31 32 31 31 31 31 30 28 27 26 25 24 22 21 21 20 19 19 19 19 19 19 18 18 18 18 18 17 17 17 17 17 17 17 17 17 17 17 17 17 17 17 17 17 17 17 17
31 31 31 31 31 31 31 31 30 28 28 27 25 24 22 21 21 20 19 19 19 19 19 19 18 18 18 18 18 17 17 17 17 17 17 17 17 17 17 17 17 17 17 17 17 17 17 17 17
31 31 31 31 31 31 31 31 31 28 28 27 25 24 22 22 21 20 19 19 19 19 19 19 18 18 18 18 18 17 17 17 17 17 17 17 17 17 17 17 17 17 17 17 17 17 17 17 17
30 30 30 31 31 31 31 31 31 29 28 27 26 24 23 22 21 20 19 19 19 19 18 18 18 18 18 17 17 17 17 17 17 17 17 17 17 17 17 17 17 17 17 17 17 17 17 17 17
30 30 30 31 30 30 31 31 31 29 28 27 26 25 24 22 21 19 19 19 19 18 18 18 18 18 18 18 18 18 18 17 17 17 17 17 17 17 17 17 17 17 17 17 17 17 17 17 17
30 30 30 30 30 31 31 31 30 29 28 26 26 25 24 23 21 20 19 19 18 18 18 18 18 18 18 18 17 17 17 17 17 17 17 17 17 17 17 17 17 17 17 17 17 17 17 17 17
29 30 30 30 30 31 30 30 31 30 29 28 26 25 24 23 22 20 19 19 18 18 18 18 18 18 18 18 17 17 17 17 17 17 17 17 17 17 17 17 17 17 17 17 17 17 17 17 17
30 30 30 30 30 30 30 30 31 30 30 29 28 26 25 23 22 20 19 19 19 18 18 18 18 18 18 17 17 17 17 17 17 17 17 17 17 17 17 17 17 17 17 17 17 17 17 17 17
29 29 29 30 31 29 30 29 30 31 30 29 28 26 24 23 21 20 19 19 19 18 18 18 18 18 17 18 17 17 17 17 17 17 17 17 17 17 17 17 17 17 17 17 17 17 17 17 17
29 29 29 29 29 29 29 29 30 30 29 29 28 26 24 23 22 20 20 19 19 18 18 18 18 18 17 17 17 17 17 17 17 17 17 17 17 17 17 17 17 17 17 17 17 17 17 17 17
29 30 29 29 29 30 29 29 30 29 28 27 27 26 24 23 22 21 20 19 19 18 18 18 18 18 18 18 18 17 17 17 17 17 17 17 17 17 17 17 17 17 17 17 17 17 17 17 17
29 30 31 30 29 29 30 30 30 29 28 28 27 26 24 23 22 21 20 19 19 19 18 18 18 18 18 18 18 18 17 17 17 17 17 17 17 17 17 17 17 17 17 17 17 16 17 16 16
30 30 30 29 28 28 29 29 30 29 28 28 27 26 25 23 22 21 21 20 19 19 18 18 18 18 18 18 17 17 17 17 17 17 17 17 17 17 17 17 17 17 17 16 17 16 16 16 16
28 28 29 30 30 29 29 30 30 29 29 28 27 26 25 24 23 22 21 20 20 19 19 18 18 18 18 18 18 17 17 17 17 17 17 17 17 17 17 17 17 17 17 16 16 16 16 16 16
30 30 29 29 28 29 29 30 30 29 29 28 27 25 25 24 23 22 21 20 20 19 19 18 18 18 18 18 18 18 17 17 17 17 17 17 17 17 17 17 16 16 16 16 16 16 16 16 16
Wind_Speed
7 5 4 4 2 9 14 12 10 9 7 7 6 4 6 7 6 8 10 15 17 17 18 17 14 15 15 16 16 17 16 16 15 15 14 13 13 12 12 12 13 13 13 14 14 14 14 14 14
3 3 4 3 5 12 13 10 11 10 8 6 6 5 6 7 7 10 13 16 18 18 18 17 17 15 15 15 16 16 16 15 15 14 13 13 13 12 12 12 13 13 13 14 14 14 14 14 15
3 5 3 3 10 12 13 10 9 7 5 4 5 6 5 6 8 9 13 18 17 16 17 18 17 16 15 15 15 15 15 14 14 14 13 13 12 12 12 12 13 13 14 14 14 14 14 15 15
4 4 2 5 13 11 9 7 5 5 6 5 5 7 6 6 6 11 17 18 17 16 17 19 17 16 15 15 15 14 14 14 13 13 13 12 12 12 12 12 13 13 13 13 13 14 14 14 14
5 3 3 9 11 9 6 5 3 4 4 4 4 8 7 6 9 16 17 17 16 15 16 19 17 16 15 14 14 14 13 13 12 12 12 12 12 12 13 12 13 13 13 13 13 13 13 13 13
3 2 4 9 10 7 6 3 2 4 5 5 5 7 6 7 13 16 16 15 15 15 16 18 17 16 15 14 14 13 13 12 12 12 12 12 12 13 13 12 13 13 12 13 13 12 12 13 12
2 2 6 7 8 8 6 3 2 3 4 4 4 6 7 10 13 14 15 14 14 14 14 16 17 16 14 14 13 13 12 12 12 11 11 12 12 12 12 12 12 12 12 12 12 12 12 12 12
3 1 5 6 7 8 6 3 3 2 4 5 2 3 7 13 14 14 14 13 12 12 13 14 14 14 14 14 13 13 12 12 12 11 11 11 12 12 12 12 12 12 11 11 11 11 11 11 11
4 1 5 6 5 5 4 2 2 2 4 4 3 4 10 18 17 15 14 13 12 11 11 12 13 13 12 13 14 13 12 11 12 11 11 10 10 11 11 12 12 11 11 10 10 11 11 11 11
3 1 6 5 5 5 4 2 1 3 4 4 6 9 15 18 17 17 16 16 15 14 12 10 11 11 11 10 12 10 10 10 9 9 10 8 7 7 9 12 10 10 10 10 9 9 10 8 9
2 2 3 3 4 5 3 1 1 2 1 2 6 13 17 17 16 15 15 14 14 13 12 11 10 10 10 8 9 8 7 8 8 8 8 7 7 7 8 9 10 10 10 9 9 8 6 5 5
2 1 3 4 4 4 4 2 1 1 3 3 7 15 17 17 16 15 15 14 13 13 12 11 10 9 8 7 7 7 7 7 7 8 8 7 5 5 6 6 7 7 6 5 5 4 5 5 5
3 2 3 4 4 4 4 3 2 1 2 6 10 14 16 16 14 13 12 12 12 12 12 11 10 9 8 6 6 6 6 6 7 7 6 6 5 5 6 5 4 5 5 6 4 4 5 4 4
2 4 4 4 3 2 3 2 2 1 3 7 10 12 14 14 14 13 13 13 13 12 12 11 11 10 9 7 6 5 6 5 6 7 7 6 5 5 5 5 4 4 4 4 4 4 4 4 4
5 6 5 2 2 1 4 4 2 3 5 7 9 10 11 12 13 13 13 13 13 12 12 12 12 11 10 9 8 7 6 7 6 6 7 7 6 6 5 4 5 4 4 4 4 4 4 4 4
6 8 6 3 1 1 6 3 5 4 5 6 8 9 10 11 12 11 11 11 12 12 12 12 11 12 11 9 8 7 7 7 6 6 7 7 6 6 6 5 5 4 5 5 4 4 4 3 3
8 7 5 2 0 3 5 4 3 3 5 6 7 8 9 10 10 10 10 11 12 12 12 12 11 12 11 10 8 7 6 6 6 7 7 7 7 7 6 5 4 6 5 4 5 4 4 4 3
5 5 4 3 1 5 6 4 1 3 4 5 7 8 8 10 10 10 10 10 11 11 12 12 11 11 10 9 7 6 6 6 6 6 6 7 7 8 7 6 6 6 5 5 4 3 3 3 3
5 6 5 2 3 5 5 5 2 3 5 5 6 7 8 8 8 9 9 10 10 10 11 12 12 11 9 8 9 8 8 7 6 6 8 8 8 8 7 5 6 6 5 5 6 5 6 5 4
7 8 6 2 1 4 5 6 2 3 4 5 6 8 8 9 9 9 10 10 11 11 11 11 12 11 11 9 8 7 6 6 6 6 7 9 9 9 8 7 6 6 5 6 6 5 5 4 5
9 8 5 4 4 5 6 6 4 4 4 4 5 6 7 9 10 10 10 10 10 11 12 11 12 11 11 10 8 6 6 5 6 7 7 9 10 9 9 8 7 6 7 6 7 7 7 5 5
9 5 5 5 7 4 4 6 3 3 4 5 6 7 7 8 9 9 10 10 10 10 10 10 12 11 11 10 10 10 9 9 8 7 7 8 10 10 9 9 8 7 7 6 8 7 6 6 5
4 1 4 6 7 8 5 8 1 3 2 3 4 6 7 8 9 9 9 9 9 9 9 9 10 10 11 11 11 11 10 8 7 7 7 7 7 9 9 9 8 8 7 7 7 6 7 6 6
5 5 4 7 8 9 4 6 4 1 1 0 3 5 7 8 9 9 9 8 8 8 8 8 9 10 10 11 11 12 11 9 8 8 8 7 6 7 9 9 8 8 7 7 7 7 8 7 6
10 9 7 8 7 5 2 6 3 3 2 1 1 5 7 9 10 10 9 9 9 9 9 8 9 9 10 11 12 11 11 10 10 9 9 8 7 7 8 8 8 8 8 8 8 7 7 8 7
14 13 9 6 5 2 4 4 1 2 1 1 3 6 8 9 9 9 9 9 9 9 9 8 9 8 9 10 10 9 9 8 8 9 7 7 6 6 7 8 8 8 8 8 7 7 8 7 7
11 12 10 7 6 6 3 2 2 3 3 4 5 7 8 9 9 9 9 9 9 9 9 9 9 8 8 8 9 9 9 8 7 7 7 6 6 6 7 8 8 8 8 8 7 6 6 6 6
8 9 7 9 6 7 4 5 1 3 3 5 6 7 8 9 9 9 9 9 8 8 8 8 8 8 8 8 8 7 7 7 6 6 6 5 5 5 6 7 7 7 7 7 7 6 6 6 5
10 10 9 9 7 7 4 1 4 2 4 5 6 7 8 9 10 9 9 8 9 8 8 8 7 7 6 6 6 6 6 5 5 5 5 5 5 5 5 6 6 6 6 6 6 6 6 6 6
12 13 13 10 8 8 8 1 6 3 4 5 7 7 8 8 9 9 9 9 8 8 8 8 7 6 6 6 6 5 5 5 5 5 4 4 4 4 4 4 4 5 5 5 6 6 6 6 5
Wind_Direction
215 221 236 246 183 78 69 66 64 68 68 67 70 55 51 43 37 87 122 137 137 139 137 141 133 130 128 126 127 128 128 127 126 125 125 124 121 117 115 113 109 105 105 105 103 104 105 105 105
227 229 243 245 73 79 72 65 64 62 81 93 85 75 70 67 65 110 133 138 144 142 142 142 135 133 131 128 127 127 127 126 126 126 125 124 121 118 116 113 110 107 106 105 104 104 105 105 107
230 244 276 74 68 69 74 69 71 81 90 86 85 65 60 75 105 127 138 146 146 141 139 136 141 137 134 131 129 127 127 126 126 125 125 123 121 118 116 114 112 109 107 106 105 105 105 106 107
243 237 226 81 78 68 67 70 75 92 92 81 96 89 82 75 114 131 142 150 145 143 144 140 144 140 138 134 131 129 128 127 126 124 123 121 119 118 116 114 112 110 109 108 107 106 106 107 109
251 260 110 87 78 72 65 62 69 61 73 88 95 101 96 85 115 133 147 150 148 148 143 142 146 144 142 138 134 132 131 129 128 125 122 121 118 116 115 114 112 111 111 110 108 108 108 108 108
250 240 89 83 81 74 71 77 75 69 83 96 106 108 96 116 134 143 149 152 151 150 145 142 148 147 146 143 140 138 136 131 129 127 122 120 118 116 115 115 115 114 114 113 111 110 111 110 110
303 61 80 81 82 76 58 55 54 74 94 97 105 109 123 139 142 148 150 153 153 152 148 150 155 153 150 147 145 143 139 134 131 129 126 124 122 120 118 118 118 117 117 117 116 115 116 116 115
304 169 104 84 71 68 62 61 56 40 86 107 132 124 146 151 149 150 151 153 154 156 154 155 160 155 156 152 149 145 140 137 135 132 130 129 128 127 129 129 120 120 120 120 120 121 122 122 121
273 210 88 69 50 54 53 59 69 99 129 127 87 65 124 143 151 153 154 156 159 162 163 162 158 158 160 155 148 151 146 144 147 141 139 151 147 139 147 119 124 124 123 122 121 123 127 131 129
265 108 71 46 24 13 18 8 130 169 161 147 123 111 131 148 158 163 165 165 167 167 169 167 163 163 163 155 151 159 160 157 164 148 152 150 138 139 125 124 129 127 127 129 124 131 150 166 138
281 27 41 17 3 346 339 337 206 236 185 167 164 151 153 159 166 171 172 172 170 169 170 170 168 168 165 155 158 160 158 157 159 151 152 146 149 145 141 145 144 146 156 148 144 167 154 134 117
267 348 339 332 336 320 318 315 274 290 26 68 146 154 160 168 173 176 176 175 172 172 174 172 170 170 171 163 160 163 164 167 161 154 166 158 155 153 146 154 152 158 154 147 157 148 134 128 136
250 299 316 313 308 315 300 287 286 30 80 111 135 153 166 172 175 176 176 176 174 176 176 174 173 171 170 166 174 166 169 169 157 156 163 164 162 158 150 148 156 164 151 161 169 157 141 146 148
309 291 288 295 309 306 285 271 219 109 133 139 149 161 170 174 176 175 178 180 180 181 179 176 179 176 174 175 177 170 176 173 168 166 161 175 169 159 161 161 169 170 170 158 167 151 154 160 148
270 270 254 243 288 308 280 230 184 134 151 158 163 167 171 176 180 184 183 183 183 183 181 180 181 180 180 183 186 180 184 177 177 166 166 179 179 167 179 172 181 176 169 163 177 166 169 171 167
244 247 235 177 285 292 271 261 118 140 168 170 169 170 174 180 186 186 183 183 183 183 183 184 186 183 185 187 191 189 189 178 180 177 176 184 182 180 195 187 182 178 186 183 176 199 185 176 183
224 235 241 196 180 298 271 285 120 163 186 178 176 175 178 179 186 183 181 181 183 185 185 185 189 186 187 184 188 189 184 185 187 186 186 185 191 191 206 199 176 190 192 195 207 182 207 187 192
219 239 238 253 336 298 271 277 198 186 196 189 185 183 184 187 186 180 179 180 183 185 185 186 190 190 186 181 182 189 185 190 194 193 191 193 197 199 210 200 192 202 197 201 210 188 216 221 211
257 259 260 284 334 292 279 284 251 201 203 197 194 189 186 185 173 173 177 179 179 183 188 192 193 188 184 184 188 188 190 194 198 202 200 203 207 203 212 213 192 212 208 212 206 206 202 214 208
238 249 248 236 321 292 288 278 241 194 207 211 204 195 186 176 170 169 173 174 181 186 194 198 195 191 192 191 190 192 189 198 199 206 203 210 213 211 209 215 212 206 209 214 214 214 229 217 209
231 246 260 278 282 237 279 248 190 176 188 197 208 200 189 181 174 170 171 175 179 185 192 196 194 195 197 192 188 188 186 202 202 207 207 209 210 212 215 210 218 212 216 210 212 214 225 233 221
228 236 258 260 265 264 282 289 185 176 192 196 202 198 189 180 172 170 172 178 185 188 187 188 190 194 199 195 196 197 200 204 207 210 206 204 209 213 211 209 212 218 223 214 218 214 224 230 231
230 206 236 249 259 269 249 278 252 166 214 182 185 189 183 175 171 170 174 178 180 182 182 184 186 192 197 200 200 204 211 213 208 209 205 210 211 215 213 210 212 216 224 224 229 218 227 227 234
180 188 204 235 249 254 258 273 275 98 348 130 155 168 171 166 164 164 164 165 171 175 177 179 184 193 198 200 203 208 213 215 214 210 209 210 209 211 211 212 213 218 223 221 222 225 225 234 239
204 215 220 226 230 246 157 257 287 41 1 318 172 159 164 162 161 162 164 164 167 172 176 180 186 194 198 199 203 208 213 213 215 215 213 215 212 210 208 214 212 218 225 228 226 225 237 231 233
209 223 238 255 255 225 182 249 353 68 53 105 148 148 153 158 158 161 163 162 166 170 174 180 186 192 196 197 200 206 211 213 216 214 215 212 216 217 209 214 216 221 226 229 226 231 229 229 232
204 226 245 255 265 268 236 239 213 152 144 129 132 143 151 153 153 157 157 159 164 169 172 176 179 183 191 196 195 200 207 215 218 212 213 217 213 215 211 214 216 219 222 226 226 231 229 225 229
240 222 218 237 247 254 234 240 225 156 152 142 143 147 147 152 153 156 158 159 162 165 166 169 172 178 186 190 195 194 199 204 209 211 211 213 210 214 215 216 216 218 218 218 223 225 222 221 229
194 207 221 231 248 262 254 184 86 130 152 157 153 152 155 157 156 157 159 161 163 161 159 160 164 171 177 182 183 181 187 188 191 197 203 204 208 204 212 217 218 216 215 213 217 224 219 221 226
213 213 211 221 224 246 270 199 106 135 154 162 156 154 156 157 157 157 157 160 164 161 159 160 164 168 172 169 168 172 177 179 183 187 193 196 208 210 208 213 215 215 213 215 218 220 220 221 224
Height
1507 1506 1506 1508 1501 1499 1506 1505 1501 1503 1505 1509 1511 1511 1511 1513 1516 1527 1531 1532 1534 1537 1538 1540 1542 1545 1547 1548 1550 1551 1552 1553 1555 1556 1557 1558 1559 1559 1560 1561 1562 1562 1563 1563 1564 1564 1565 1566 1567
1509 1508 1509 1505 1497 1509 1512 1505 1505 1507 1510 1513 1514 1514 1515 1519 1524 1527 1530 1533 1536 1539 1541 1542 1544 1546 1548 1550 1552 1553 1554 1555 1557 1558 1559 1560 1561 1561 1562 1563 1564 1564 1565 1565 1566 1566 1567 1568 1569
1510 1509 1509 1499 1502 1509 1512 1506 1508 1510 1513 1513 1515 1517 1519 1524 1528 1530 1532 1535 1539 1541 1543 1543 1546 1548 1550 1552 1554 1555 1556 1557 1559 1560 1561 1561 1562 1563 1564 1565 1566 1566 1567 1568 1568 1569 1570 1570 1571
1512 1512 1507 1500 1507 1507 1507 1507 1509 1510 1513 1515 1515 1519 1524 1529 1530 1532 1533 1537 1541 1543 1545 1545 1547 1550 1552 1554 1555 1557 1558 1559 1560 1561 1562 1563 1564 1565 1566 1567 1568 1568 1569 1570 1571 1571 1572 1573 1573
1514 1509 1501 1504 1507 1507 1507 1510 1511 1510 1513 1516 1517 1520 1527 1530 1531 1533 1535 1539 1542 1545 1547 1547 1549 1551 1553 1555 1557 1558 1560 1561 1562 1563 1564 1565 1566 1567 1568 1569 1569 1570 1571 1572 1573 1574 1574 1575 1576
1512 1504 1504 1510 1509 1507 1508 1511 1511 1512 1515 1517 1519 1521 1529 1532 1533 1535 1538 1541 1544 1546 1549 1548 1550 1553 1555 1557 1558 1560 1561 1563 1564 1565 1566 1567 1568 1569 1570 1570 1571 1572 1573 1574 1575 1576 1577 1577 1578
1511 1503 1507 1508 1509 1509 1510 1511 1511 1512 1515 1519 1520 1522 1530 1533 1534 1536 1539 1542 1545 1548 1550 1550 1552 1554 1556 1558 1560 1561 1563 1564 1565 1566 1567 1568 1569 1570 1571 1572 1573 1574 1575 1576 1577 1578 1579 1580 1580
1513 1504 1505 1507 1509 1510 1510 1512 1514 1514 1517 1521 1522 1522 1528 1532 1534 1537 1540 1543 1546 1548 1551 1552 1555 1556 1557 1559 1560 1562 1564 1565 1566 1567 1569 1570 1571 1572 1573 1574 1575 1576 1577 1578 1579 1580 1581 1582 1582
1514 1506 1508 1509 1511 1510 1510 1512 1515 1517 1518 1521 1523 1524 1527 1529 1533 1536 1539 1543 1545 1548 1551 1553 1556 1557 1560 1561 1561 1563 1565 1566 1567 1569 1570 1571 1573 1574 1575 1576 1577 1578 1579 1580 1581 1582 1583 1584 1584
1511 1506 1509 1510 1510 1510 1511 1513 1514 1516 1517 1521 1524 1526 1527 1529 1533 1536 1539 1541 1544 1547 1551 1553 1556 1558 1560 1562 1563 1565 1566 1567 1569 1570 1571 1573 1574 1576 1577 1577 1578 1579 1580 1582 1583 1584 1585 1586 1587
1511 1509 1510 1511 1512 1512 1511 1512 1513 1513 1514 1518 1522 1525 1527 1530 1533 1536 1539 1542 1545 1547 1550 1552 1555 1557 1560 1562 1564 1566 1567 1568 1570 1571 1572 1574 1575 1577 1578 1579 1580 1581 1582 1584 1584 1586 1588 1589 1589
1513 1512 1513 1512 1513 1513 1512 1512 1512 1514 1516 1519 1521 1523 1526 1530 1533 1536 1539 1542 1545 1547 1549 1552 1554 1556 1559 1562 1564 1565 1567 1569 1571 1571 1573 1575 1576 1578 1579 1580 1582 1583 1584 1585 1586 1587 1588 1589 1589
1513 1513 1513 1513 1512 1512 1513 1512 1513 1515 1517 1519 1521 1524 1526 1529 1533 1536 1539 1541 1544 1546 1548 1550 1553 1555 1557 1560 1563 1565 1567 1570 1571 1571 1573 1575 1577 1578 1579 1580 1582 1584 1585 1586 1586 1588 1588 1589 1589
1514 1514 1512 1512 1511 1512 1512 1511 1513 1515 1518 1519 1522 1524 1527 1529 1532 1535 1537 1540 1542 1544 1547 1549 1552 1554 1557 1559 1562 1564 1567 1568 1571 1572 1573 1575 1577 1578 1579 1580 1581 1584 1585 1586 1587 1588 1588 1590 1590
1515 1512 1509 1509 1510 1511 1511 1509 1511 1515 1517 1519 1522 1524 1526 1529 1531 1534 1536 1538 1541 1543 1546 1548 1550 1553 1556 1558 1561 1564 1566 1568 1570 1571 1572 1574 1577 1578 1579 1581 1582 1584 1585 1585 1587 1588 1589 1590 1591
1511 1510 1510 1508 1509 1510 1511 1510 1510 1515 1516 1518 1521 1523 1526 1528 1531 1533 1535 1537 1539 1541 1544 1546 1549 1552 1554 1557 1560 1563 1565 1567 1569 1571 1572 1574 1575 1577 1578 1581 1582 1583 1585 1586 1587 1588 1589 1590 1591
1510 1511 1511 1508 1508 1508 1508 1507 1509 1513 1515 1517 1520 1523 1525 1528 1530 1532 1533 1535 1537 1539 1542 1545 1547 1550 1552 1555 1558 1561 1563 1565 1568 1570 1572 1573 1574 1576 1578 1580 1581 1582 1584 1585 1587 1588 1589 1590 1590
1513 1511 1512 1511 1507 1508 1506 1505 1507 1512 1514 1516 1519 1522 1524 1526 1528 1530 1532 1534 1536 1538 1540 1542 1545 1548 1550 1553 1556 1559 1561 1564 1567 1569 1570 1572 1573 1575 1577 1579 1580 1582 1583 1584 1585 1586 1587 1588 1589
1512 1513 1513 1510 1508 1508 1506 1505 1505 1510 1512 1514 1517 1520 1522 1525 1527 1529 1530 1532 1534 1536 1537 1539 1542 1545 1548 1550 1553 1556 1559 1562 1565 1567 1568 1570 1572 1574 1576 1578 1579 1580 1582 1583 1584 1585 1586 1587 1588
1514 1514 1512 1509 1509 1509 1506 1504 1503 1507 1510 1513 1515 1517 1520 1523 1526 1527 1528 1530 1531 1533 1535 1537 1538 1542 1545 1548 1551 1555 1558 1560 1563 1565 1566 1569 1571 1572 1575 1576 1578 1579 1580 1581 1582 1584 1585 1587 1587
1513 1513 1511 1512 1509 1506 1507 1504 1502 1505 1509 1512 1514 1516 1518 1521 1523 1525 1526 1528 1529 1530 1532 1534 1535 1539 1543 1546 1550 1553 1556 1558 1561 1563 1564 1567 1568 1570 1572 1574 1576 1577 1579 1580 1580 1582 1583 1585 1586
1513 1508 1510 1511 1512 1507 1509 1512 1501 1501 1504 1508 1511 1514 1516 1519 1522 1524 1525 1526 1527 1529 1530 1532 1534 1537 1541 1544 1547 1550 1553 1556 1558 1561 1563 1565 1566 1568 1570 1572 1574 1575 1577 1578 1579 1580 1581 1582 1584
1508 1509 1509 1510 1510 1511 1506 1511 1501 1499 1502 1503 1507 1511 1514 1518 1520 1522 1524 1525 1527 1528 1530 1531 1534 1536 1539 1542 1545 1548 1551 1554 1557 1559 1560 1562 1564 1566 1568 1570 1571 1573 1574 1576 1577 1578 1579 1580 1581
1510 1511 1511 1509 1506 1519 1510 1515 1508 1497 1501 1501 1505 1510 1513 1516 1519 1521 1523 1525 1526 1528 1529 1531 1532 1535 1537 1540 1543 1546 1549 1552 1554 1556 1558 1560 1562 1564 1565 1567 1569 1570 1572 1573 1574 1575 1576 1578 1579
1509 1513 1519 1521 1519 1515 1508 1513 1506 1498 1500 1502 1504 1509 1512 1515 1518 1520 1522 1524 1525 1526 1528 1530 1532 1534 1536 1538 1541 1544 1546 1549 1551 1554 1556 1557 1559 1561 1563 1565 1566 1567 1569 1570 1571 1572 1574 1575 1575
1505 1505 1517 1525 1520 1510 1511 1510 1499 1498 1501 1503 1505 1508 1511 1514 1517 1519 1522 1523 1525 1526 1528 1529 1531 1533 1535 1537 1539 1541 1544 1547 1549 1551 1553 1555 1557 1559 1560 1561 1563 1564 1566 1567 1568 1570 1571 1571 1572
1504 1503 1494 1505 1510 1515 1506 1502 1497 1498 1500 1503 1505 1508 1511 1514 1517 1519 1521 1523 1525 1526 1527 1529 1530 1532 1534 1536 1538 1540 1542 1544 1547 1548 1550 1552 1553 1555 1557 1559 1560 1561 1563 1564 1565 1566 1567 1568 1569
1497 1495 1502 1507 1521 1522 1511 1506 1500 1498 1499 1501 1505 1507 1510 1514 1516 1519 1521 1523 1525 1526 1527 1529 1530 1531 1533 1535 1537 1539 1541 1543 1544 1546 1548 1549 1550 1552 1554 1556 1557 1558 1560 1561 1562 1563 1564 1565 1566
1503 1503 1500 1500 1502 1514 1516 1506 1491 1495 1497 1500 1504 1507 1510 1513 1516 1518 1521 1523 1525 1526 1527 1529 1530 1531 1533 1535 1536 1538 1540 1541 1543 1544 1546 1547 1549 1550 1552 1553 1554 1555 1557 1558 1558 1560 1560 1561 1562
1491 1493 1498 1507 1510 1507 1506 1502 1491 1493 1496 1499 1503 1507 1510 1513 1515 1518 1520 1522 1524 1526 1527 1529 1530 1531 1533 1534 1535 1537 1538 1540 1541 1543 1544 1545 1547 1548 1550 1551 1552 1553 1554 1554 1555 1556 1557 1558 1558